Regional Weather Roundup
Issued by NWS

Home | Current Version | Previous Version | Text Only | Print | Product List | Glossary On
Versions: 1 2 3 4 5 6 7 8 9 10 11 12 13 14 15 16 17 18 19 20 21 22 23 24 25 26 27 28 29 30 31 32 33 34 35 36 37 38 39 40 41 42 43 44 45 46 47 48 49 50
000
ASUS43 KBIS 060920
RWRND

NORTH DAKOTA REGIONAL WEATHER ROUNDUP
NATIONAL WEATHER SERVICE BISMARCK ND
400 AM CDT WED MAY 06 2015

NOTE: "FAIR" INDICATES FEW OR NO CLOUDS BELOW 12,000 FEET WITH NO
SIGNIFICANT WEATHER AND/OR OBSTRUCTIONS TO VISIBILITY.


NDZ001>003-009>011-017-061000-
NORTHWEST NORTH DAKOTA

CITY           SKY/WX    TMP DP  RH WIND       PRES   REMARKS
WILLISTON      CLEAR     59  51  75 SE12      29.70F
MINOT          CLEAR     52  45  77 SE7       29.80F
MINOT AFB      CLEAR     49  47  91 SE9       29.78F
$$

NDZ018>021-031>035-040>046-061000-
SOUTHWEST NORTH DAKOTA

CITY           SKY/WX    TMP DP  RH WIND       PRES   REMARKS
BISMARCK       CLOUDY    58  31  35 SE12      29.83F
DICKINSON      CLOUDY    56  53  90 SE16      29.73F
GARRISON         N/A     56  52  86 SE10      29.80F
HETTINGER ARPT CLOUDY    57  52  83 SE12      29.77F
$$

NDZ004>008-012>016-024-026-027-054-061000-
NORTHEAST NORTH DAKOTA

CITY           SKY/WX    TMP DP  RH WIND       PRES   REMARKS
GRAND FORKS    MOCLDY    57  51  80 SE8       29.94F
GRND FRKS AFB  MOCLDY    57  53  84 SE9       29.93F
DEVILS LAKE    CLOUDY    57  52  82 SE12      29.88F
$$

NDZ022-023-025-028>030-036>039-047>053-061000-
SOUTHEAST NORTH DAKOTA

CITY           SKY/WX    TMP DP  RH WIND       PRES   REMARKS
FARGO          CLOUDY    61  55  81 SE17      29.94F
JAMESTOWN      LGT RAIN  58  54  86 SE15      29.89F
$$



USA.gov is the U.S. government's official web portal to all federal, state and local government web resources and services.